Regional Weather Roundup
Issued by NWS Little Rock, AR

Home | Current Version | Previous Version | Text Only | Print | Product List | Glossary On
Versions: 1 2 3 4 5 6 7 8 9 10 11 12 13 14 15 16 17 18 19 20 21 22 23 24 25 26 27 28 29 30 31 32 33 34 35 36 37 38 39 40 41 42 43 44 45 46 47 48 49 50
238
ASUS44 KLZK 190705
RWRLZK

WEATHER ROUNDUP FOR ARKANSAS
NATIONAL WEATHER SERVICE LITTLE ROCK AR
100 AM CST SUN NOV 19 2017

NOTE: "FAIR" INDICATES FEW OR NO CLOUDS BELOW 12,000 FEET WITH NO
SIGNIFICANT WEATHER AND/OR OBSTRUCTIONS TO VISIBILITY.

ARZ001-003-010-029-190800-
NORTHWEST ARKANSAS

CITY           SKY/WX    TMP DP  RH WIND       PRES   REMARKS
FAYETTEVILLE   CLEAR     39  32  76 CALM      30.22R
FORT SMITH     PTCLDY    36  32  85 W8        30.24R
HARRISON       CLEAR     39  31  72 W7        30.18R
BENTONVILLE    CLEAR     40  29  64 NW6       30.24R
ROGERS         CLEAR     39  30  70 NW3       30.22S
SILOAM SPGS    CLEAR     37  30  75 NW3       30.24S
HIGHFILL       CLEAR     38  31  76 NW7       30.23R
$$

ARZ004-005-016-190800-
NORTH CENTRAL ARKANSAS

CITY           SKY/WX    TMP DP  RH WIND       PRES   REMARKS
BATESVILLE     PTCLDY    45  29  53 NW8G17    30.16R
FLIPPIN        CLEAR     44  30  57 NW8       30.19R
MTN HOME       CLEAR     41  32  70 N6        30.16R
$$

ARZ040-041-190800-
WEST CENTRAL ARKANSAS

CITY           SKY/WX    TMP DP  RH WIND       PRES   REMARKS
MENA           PTCLDY    46  34  61 NW5       30.23R
MOUNT IDA      CLEAR     37  32  82 CALM      30.19R
$$

ARZ009-017-025-026-028-190800-
NORTHEAST ARKANSAS

CITY           SKY/WX    TMP DP  RH WIND       PRES   REMARKS
JONESBORO      CLEAR     44  34  67 NW8       30.12R
NEWPORT        CLEAR     41  32  70 NW10      30.15R
WALNUT RIDGE     N/A     40  33  76 W8        30.13R
BLYTHEVILLE    CLEAR     41  36  82 NW7       30.10S
$$

ARZ022-023-033-042-044-190800-
CENTRAL ARKANSAS

CITY           SKY/WX    TMP DP  RH WIND       PRES   REMARKS
LITTLE ROCK    CLEAR     40  33  76 W6        30.20S
N LITTLE ROCK    N/A     43  33  69 CALM      30.20R
JACKSONVILLE   CLEAR     36  31  83 W5        30.18S
SEARCY         CLEAR     45  32  60 CALM      30.18S
HOT SPRINGS    CLEAR     42  35  76 W3        30.21S
RUSSELLVILLE   CLEAR     36  34  92 CALM      30.20R
CLINTON        FAIR      46  30  53 CALM      30.18R
$$

ARZ036-190800-
EAST ARKANSAS

CITY           SKY/WX    TMP DP  RH WIND       PRES   REMARKS
WEST MEMPHIS   CLEAR     42  37  82 NW5       30.12S
$$

ARZ050-053-066-070-073-190800-
SOUTHWEST ARKANSAS

CITY           SKY/WX    TMP DP  RH WIND       PRES   REMARKS
ARKADELPHIA    FAIR      37  32  82 CALM      30.23S
CAMDEN         CLEAR     43  32  65 CALM      30.22S
TEXARKANA      CLEAR     44  34  67 NW6       30.25R
EL DORADO      CLEAR     43  36  76 W5        30.23R
DE QUEEN       PTCLDY    34  34 100 CALM      30.23S
$$

ARZ056-057-069-190800-
SOUTHEAST ARKANSAS

CITY           SKY/WX    TMP DP  RH WIND       PRES   REMARKS
PINE BLUFF     CLEAR     44  32  62 W6        30.20R
STUTTGART      CLEAR     42  34  73 W9        30.19R
MONTICELLO     CLEAR     46  33  60 NW5       30.19R

$$






USA.gov is the U.S. government's official web portal to all federal, state and local government web resources and services.